Regional Weather Roundup
Issued by NWS Northern Indiana

Home | Current Version | Previous Version | Graphics & Text | Print | Product List | Glossary On
Versions: 1 2 3 4 5 6 7 8 9 10 11 12 13 14 15 16 17 18 19 20 21 22 23 24 25 26 27 28 29 30 31 32 33 34 35 36 37 38 39 40 41 42 43 44 45 46 47 48 49 50
000
ASUS43 KIWX 300700
RWRIWX

KIWX WEATHER ROUNDUP
NATIONAL WEATHER SERVICE NORTHERN INDIANA
300 AM EDT THU OCT 30 2014

NOTE: "FAIR" INDICATES FEW OR NO CLOUDS BELOW 12,000 FEET WITH NO
SIGNIFICANT WEATHER AND/OR OBSTRUCTIONS TO VISIBILITY.

* THESE STATIONS ARE NOT UNDER NWS QUALITY CONTROL. THEY ALSO MAY NOT
  REPORT WEATHER SUCH AS PRECIPITATION OR FOG.

INZ001>027-300800-
NORTHERN INDIANA

CITY           SKY/WX    TMP DP  RH WIND       PRES   REMARKS
SOUTH BEND     CLOUDY    44  36  73 SW6       30.14R
GOSHEN         CLOUDY    43  37  79 SW6       30.12S
ANGOLA*        CLOUDY    43  37  81 W3        30.11S
FORT WAYNE     CLOUDY    43  36  76 W5        30.14S

$$
INZ028>050-300800-
CENTRAL INDIANA

CITY           SKY/WX    TMP DP  RH WIND       PRES   REMARKS
LAFAYETTE      CLEAR     36  35  96 CALM      30.15S
KOKOMO*        CLOUDY    43  36  75 W6        30.15S
MUNCIE*        CLOUDY    42  35  76 CALM      30.13S
INDIANAPOLIS   CLEAR     40  31  70 CALM      30.14R

$$
MIZ043>046-050>051-056>058-064>065-071>073-077>080-300800-
SOUTHWEST LOWER MICHIGAN

CITY           SKY/WX    TMP DP  RH WIND       PRES   REMARKS
BATTLE CREEK   CLOUDY    43  36  76 CALM      30.12R
BENTON HARBOR  CLOUDY    46  35  65 W6        30.12S
COLDWATER*     CLOUDY    43  40  90 CALM      30.11S
HILLSDALE*     CLEAR     35  35 100 CALM      30.10S
HOLLAND        CLOUDY    46  39  76 CALM      30.12S
GRAND RAPIDS   CLOUDY    36  34  92 S3        30.12R
KALAMAZOO      CLOUDY    44  38  79 CALM      30.12R
THREE RIVERS*  CLOUDY    44  41  90 CALM      30.12S

$$
OHZ001>008-015>018-024>025-300800-
NORTHWEST OHIO

CITY           SKY/WX    TMP DP  RH WIND       PRES   REMARKS
DEFIANCE       CLOUDY    41  37  86 CALM      30.12S
FINDLAY        CLOUDY    44  37  76 W8        30.11R
TOLEDO EXPRESS CLOUDY    42  37  82 W7        30.11R
TOLEDO METCALF CLOUDY    43  37  79 W5        30.11R
LIMA           CLOUDY    44  36  73 W6        30.12R

$$
AND FOR LAKE MICHIGAN COASTAL AND OPEN LAKE BUOY OBSERVATIONS

STATION/POSITION TEMP    WIND        PRES    VSBY  WAVE
                 AIR SEA DIR/SP/G                  HT/PER
                 (F)     (DEG/KT/KT) (MB)    (MI)  (FT/S)
CALUMET HARBOR    41     220/  3/  5 1019.2S
MICHIGAN CITY     46     170/  5/  7   N/A
SAINT JOSEPH      49     270/  5/  9 1020.0S
SOUTH LAKE BUOY   47 53  310/  6/ 10 1020.4R         2/ 5

$$
&&



USA.gov is the U.S. government's official web portal to all federal, state and local government web resources and services.